Weather History for Hallock, MN

Change the Weather History Date:

Thursday, February 14, 2013

  Actual Average Record
Temperature  
Mean Temperature 9 °F -  
Max Temperature 17 °F 15 °F 44 °F (1983)
Min Temperature 1 °F -6 °F -29 °F (1936)
Degree Days  
Heating Degree Days 56    
Moisture  
Dew Point 3 °F    
Average Humidity 82    
Maximum Humidity 92    
Minimum Humidity 73    
Precipitation  
Precipitation 0.00 in - - ()
Sea Level Pressure  
Sea Level Pressure 30.09 in    
Wind  
Wind Speed 11 mph (NNW)    
Max Wind Speed 16 mph    
Max Gust Speed -    
Visibility 10 miles    
Events      
Averages and records for this station are not official NWS values.
T = Trace of Precipitation, MM = Missing Value Source: NWS Daily Summary

Daily Weather History Graph

Daily Weather History Graph

Search for Another Location

Airport:

Trip Planner

Search our weather history database for the weather conditions in past years. The results will help you decide how hot, cold, wet, or windy it might be!

Date:

Astronomy

Feb. 14, 2013 Rise Set
Actual Time 7:36 AM CST 5:47 PM CST
Civil Twilight 7:04 AM CST 6:20 PM CST
Nautical Twilight 6:27 AM CST 6:57 PM CST
Astronomical Twilight 5:51 AM CST 7:33 PM CST
Moon 9:11 AM CST (2/14) 11:23 PM CST (2/14)
Length of Visible Light 11h 15m
Length of Day
10h 10m
Waxing Crescent, 22% of the Moon is Illuminated
Feb 14
Waxing Crescent
Feb 17
First Quarter
Feb 25
Full
Mar 4
Last Quarter
Mar 11
New

Hourly Weather History & Observations

Time (CST) Temp. Windchill Dew Point Humidity Pressure Visibility Wind Dir Wind Speed Gust Speed Precip Events Conditions
12:14 AM 17.6 °F 4.3 °F 12.2 °F 79% 29.80 in 10.0 mi North 12.7 mph - N/A   Overcast
12:33 AM 17.6 °F 5.0 °F 12.2 °F 79% 29.81 in 10.0 mi North 11.5 mph - N/A   Overcast
12:54 AM 15.8 °F 2.7 °F 10.4 °F 79% 29.82 in 10.0 mi NNE 11.5 mph - N/A   Overcast
1:14 AM 14.0 °F 2.0 °F 8.6 °F 79% 29.83 in 10.0 mi North 9.2 mph - N/A   Scattered Clouds
1:33 AM 12.2 °F -1.0 °F 8.6 °F 85% 29.84 in 10.0 mi North 10.4 mph - N/A   Clear
1:54 AM 12.2 °F -0.2 °F 6.8 °F 79% 29.85 in 10.0 mi North 9.2 mph - N/A   Clear
2:13 AM 10.4 °F -1.5 °F 6.8 °F 85% 29.86 in 10.0 mi NNW 8.1 mph - N/A   Clear
2:34 AM 8.6 °F -4.7 °F 5.0 °F 85% 29.87 in 10.0 mi NNW 9.2 mph - N/A   Clear
2:54 AM 8.6 °F -5.5 °F 3.2 °F 79% 29.88 in 10.0 mi North 10.4 mph - N/A   Clear
3:13 AM 8.6 °F -5.5 °F 3.2 °F 79% 29.89 in 10.0 mi North 10.4 mph - N/A   Clear
3:34 AM 6.8 °F -6.9 °F 3.2 °F 85% 29.89 in 10.0 mi North 9.2 mph - N/A   Clear
3:54 AM 6.8 °F -9.3 °F 1.4 °F 79% 29.90 in 10.0 mi North 12.7 mph - N/A   Clear
4:13 AM 6.8 °F -7.8 °F 1.4 °F 79% 29.91 in 10.0 mi North 10.4 mph - N/A   Scattered Clouds
4:34 AM 6.8 °F -7.8 °F 1.4 °F 79% 29.92 in 10.0 mi North 10.4 mph - N/A   Mostly Cloudy
4:54 AM 5.0 °F -9.1 °F 1.4 °F 85% 29.93 in 10.0 mi North 9.2 mph - N/A   Mostly Cloudy
5:14 AM 5.0 °F -6.9 °F 1.4 °F 85% 29.94 in 10.0 mi North 6.9 mph - N/A   Mostly Cloudy
5:34 AM 5.0 °F -6.9 °F 1.4 °F 85% 29.95 in 10.0 mi North 6.9 mph - N/A   Scattered Clouds
5:54 AM 3.2 °F -11.3 °F -0.4 °F 85% 29.96 in 10.0 mi North 9.2 mph - N/A   Clear
6:14 AM 3.2 °F -13.9 °F 1.4 °F 92% 29.97 in 10.0 mi North 12.7 mph - N/A   Clear
6:34 AM 3.2 °F -14.6 °F -0.4 °F 85% 29.98 in 10.0 mi North 13.8 mph - N/A   Clear
6:54 AM 3.2 °F -14.6 °F -0.4 °F 85% 29.99 in 10.0 mi North 13.8 mph - N/A   Clear
7:14 AM 3.2 °F -13.1 °F -0.4 °F 85% 30.01 in 10.0 mi North 11.5 mph - N/A   Clear
7:34 AM 1.4 °F -15.3 °F -0.4 °F 92% 30.03 in 10.0 mi North 11.5 mph - N/A   Clear
7:54 AM 1.4 °F -16.1 °F -2.2 °F 85% 30.04 in 10.0 mi NNW 12.7 mph - N/A   Clear
8:14 AM 1.4 °F -14.5 °F -2.2 °F 85% 30.05 in 10.0 mi NNW 10.4 mph - N/A   Scattered Clouds
8:34 AM 1.4 °F -16.1 °F -2.2 °F 85% 30.06 in 10.0 mi NNW 12.7 mph - N/A   Scattered Clouds
8:53 AM 1.4 °F -17.6 °F -2.2 °F 85% 30.07 in 10.0 mi NNW 15.0 mph - N/A   Clear
9:14 AM 1.4 °F -18.2 °F -2.2 °F 85% 30.08 in 10.0 mi NNW 16.1 mph - N/A   Clear
9:34 AM 3.2 °F -15.9 °F -0.4 °F 85% 30.09 in 10.0 mi NNW 16.1 mph - N/A   Clear
9:53 AM 3.2 °F -15.3 °F -0.4 °F 85% 30.10 in 10.0 mi NNW 15.0 mph - N/A   Clear
10:14 AM 3.2 °F -15.9 °F -0.4 °F 85% 30.12 in 10.0 mi NNW 16.1 mph - N/A   Clear
10:34 AM 5.0 °F -13.6 °F -0.4 °F 78% 30.12 in 10.0 mi NNW 16.1 mph - N/A   Clear
10:54 AM 5.0 °F -10.0 °F 1.4 °F 85% 30.13 in 10.0 mi NNW 10.4 mph - N/A   Clear
11:14 AM 5.0 °F -10.8 °F -0.4 °F 78% 30.14 in 10.0 mi NNW 11.5 mph - N/A   Clear
11:34 AM 6.8 °F -10.0 °F 1.4 °F 79% 30.14 in 10.0 mi NNW 13.8 mph - N/A   Clear
11:54 AM 6.8 °F -7.8 °F 1.4 °F 79% 30.15 in 10.0 mi NNW 10.4 mph - N/A   Clear
12:14 PM 6.8 °F -8.6 °F 1.4 °F 79% 30.16 in 10.0 mi NNW 11.5 mph - N/A   Clear
12:34 PM 8.6 °F -6.3 °F 3.2 °F 79% 30.16 in 10.0 mi NNW 11.5 mph - N/A   Clear
12:54 PM 8.6 °F -5.5 °F 3.2 °F 79% 30.15 in 10.0 mi NNW 10.4 mph - N/A   Clear
1:14 PM 10.4 °F -4.1 °F 3.2 °F 73% 30.15 in 10.0 mi NW 11.5 mph - N/A   Clear
1:34 PM 10.4 °F -4.1 °F 5.0 °F 79% 30.16 in 10.0 mi NNW 11.5 mph - N/A   Clear
1:54 PM 10.4 °F -5.4 °F 3.2 °F 73% 30.16 in 10.0 mi NNW 13.8 mph - N/A   Clear
2:14 PM 10.4 °F -5.4 °F 5.0 °F 79% 30.16 in 10.0 mi NNW 13.8 mph - N/A   Scattered Clouds
2:34 PM 10.4 °F -3.3 °F 5.0 °F 79% 30.17 in 10.0 mi NW 10.4 mph - N/A   Scattered Clouds
2:54 PM 12.2 °F -2.5 °F 6.8 °F 79% 30.17 in 10.0 mi NW 12.7 mph - N/A   Mostly Cloudy
3:14 PM 12.2 °F -2.5 °F 5.0 °F 73% 30.18 in 10.0 mi NW 12.7 mph - N/A   Scattered Clouds
3:34 PM 12.2 °F -2.5 °F 6.8 °F 79% 30.18 in 10.0 mi NW 12.7 mph - N/A   Scattered Clouds
3:54 PM 12.2 °F -2.5 °F 5.0 °F 73% 30.19 in 10.0 mi NW 12.7 mph - N/A   Mostly Cloudy
4:14 PM 12.2 °F -1.0 °F 5.0 °F 73% 30.19 in 10.0 mi NW 10.4 mph - N/A   Overcast
4:34 PM 12.2 °F -1.0 °F 6.8 °F 79% 30.20 in 10.0 mi NW 10.4 mph - N/A   Overcast
4:54 PM 12.2 °F -2.5 °F 5.0 °F 73% 30.20 in 10.0 mi NW 12.7 mph - N/A   Overcast
5:14 PM 12.2 °F -2.5 °F 6.8 °F 79% 30.20 in 10.0 mi NW 12.7 mph - N/A   Overcast
5:34 PM 12.2 °F -0.2 °F 6.8 °F 79% 30.21 in 10.0 mi NW 9.2 mph - N/A   Overcast
5:54 PM 12.2 °F -0.2 °F 6.8 °F 79% 30.21 in 10.0 mi NW 9.2 mph - N/A   Overcast
6:14 PM 12.2 °F -2.5 °F 8.6 °F 85% 30.21 in 10.0 mi NNW 12.7 mph - N/A   Overcast
6:34 PM 12.2 °F -1.8 °F 8.6 °F 85% 30.22 in 10.0 mi NNW 11.5 mph - N/A   Overcast
6:54 PM 12.2 °F -1.0 °F 8.6 °F 85% 30.22 in 10.0 mi NNW 10.4 mph - N/A   Overcast
7:14 PM 12.2 °F 0.7 °F 8.6 °F 85% 30.22 in 10.0 mi NNW 8.1 mph - N/A   Overcast
7:33 PM 10.4 °F -3.3 °F 6.8 °F 85% 30.22 in 10.0 mi NNW 10.4 mph - N/A   Scattered Clouds
7:54 PM 10.4 °F -2.4 °F 6.8 °F 85% 30.22 in 10.0 mi NNW 9.2 mph - N/A   Clear
8:14 PM 8.6 °F -3.7 °F 5.0 °F 85% 30.23 in 10.0 mi NNW 8.1 mph - N/A   Clear
8:33 PM 8.6 °F -4.7 °F 3.2 °F 79% 30.23 in 10.0 mi NNW 9.2 mph - N/A   Clear
8:54 PM 8.6 °F -2.6 °F 3.2 °F 79% 30.23 in 10.0 mi NNW 6.9 mph - N/A   Clear
9:14 PM 5.0 °F -6.9 °F 1.4 °F 85% 30.23 in 10.0 mi NNW 6.9 mph - N/A   Clear
9:33 PM 5.0 °F -5.6 °F 1.4 °F 85% 30.23 in 10.0 mi NW 5.8 mph - N/A   Clear
9:54 PM 5.0 °F -8.1 °F 1.4 °F 85% 30.23 in 10.0 mi NNW 8.1 mph - N/A   Clear
10:14 PM 5.0 °F -5.6 °F 1.4 °F 85% 30.23 in 10.0 mi NW 5.8 mph - N/A   Clear
10:33 PM 3.2 °F -9.1 °F -0.4 °F 85% 30.24 in 10.0 mi NW 6.9 mph - N/A   Clear
10:54 PM 3.2 °F -7.8 °F 1.4 °F 92% 30.24 in 10.0 mi NW 5.8 mph - N/A   Clear
11:14 PM 3.2 °F -7.8 °F -0.4 °F 85% 30.24 in 10.0 mi NW 5.8 mph - N/A   Clear
11:33 PM 3.2 °F -7.8 °F -0.4 °F 85% 30.25 in 10.0 mi NW 5.8 mph - N/A   Clear
11:54 PM 1.4 °F -8.3 °F -0.4 °F 92% 30.25 in 10.0 mi NW 4.6 mph - N/A   Clear